Date String (YYYY-MM-DD hh:mm:ss) UTC,Instrument flags,Ambient pressure (hPa),Sample flow (lpm),Bypass flow (lpm),Sample temperature (°C),Ambient temperature (°C),ASC tube jacket temperature (°C),LED temperature (°C),Box temperature (°C),Sample RH (%),Span deviation,Mass concentration (μg/m³),Mass concentration (μg/m³),Mass concentration (μg/m³)
DateTimeUTC,F1_M11,P_M11,Q1_M11,Q2_M11,T1_M11,T2_M11,T3_M11,T4_M11,T5_M11,U1_M11,ZSPAN_M11,X0_M11,X2_M11,X1_M11
2023-04-26 14:00:00,,0832.7,5.01,0.00,22.9,21.5,00.0,31.3,24.5,27.6,0000.0,0001.79,0000.83,0000.38
2023-04-26 14:01:00,,0832.6,5.01,0.00,22.9,21.5,00.0,31.3,24.5,27.5,0000.0,0001.81,0000.84,0000.38
2023-04-26 14:02:00,,0832.7,5.00,0.00,22.9,21.5,00.0,31.3,24.5,27.6,0000.0,0001.83,0000.84,0000.38
2023-04-26 14:03:00,,0832.6,5.00,0.00,22.9,21.5,00.0,31.3,24.5,27.6,0000.0,0001.91,0000.87,0000.38
2023-04-26 14:04:00,,0832.6,5.00,0.00,22.9,21.5,00.0,31.3,24.6,27.7,0000.0,0001.89,0000.86,0000.39
2023-04-26 14:05:00,,0832.7,5.00,0.00,22.9,21.5,00.0,31.3,24.6,27.7,0000.0,0001.84,0000.84,0000.40
2023-04-26 14:06:00,,0832.7,5.00,0.00,22.9,21.5,00.0,31.3,24.6,27.7,0000.0,0001.95,0000.83,0000.42
2023-04-26 14:07:00,,0832.7,5.00,0.00,22.9,21.5,00.0,31.3,24.6,27.7,0000.0,0002.03,0000.88,0000.46
2023-04-26 14:08:00,,0832.7,4.99,0.00,22.9,21.5,00.0,31.3,24.6,27.7,0000.0,0001.90,0000.85,0000.48
2023-04-26 14:09:00,,0832.7,5.01,0.00,22.9,21.5,00.0,31.3,24.5,27.8,0000.0,0001.85,0000.85,0000.51
2023-04-26 14:10:00,,0832.7,5.00,0.00,22.9,21.5,00.0,31.3,24.5,28.0,0000.0,0001.77,0000.83,0000.54
2023-04-26 14:11:00,,0832.7,5.00,0.00,22.9,21.5,00.0,31.3,24.5,27.8,0000.0,0001.75,0000.85,0000.57
2023-04-26 14:12:00,,0832.7,5.00,0.00,22.9,21.5,00.0,31.3,24.5,27.7,0000.0,0001.68,0000.85,0000.60
2023-04-26 14:13:00,,0832.7,4.99,0.00,22.9,21.5,00.0,31.3,24.5,27.6,0000.0,0001.58,0000.84,0000.64
2023-04-26 14:14:00,,0832.7,4.99,0.00,22.9,21.5,00.0,31.3,24.5,27.8,0000.0,0001.60,0000.85,0000.67
2023-04-26 14:15:00,,0832.8,4.99,0.00,22.9,21.5,00.0,31.3,24.5,27.9,0000.0,0001.64,0000.87,0000.70
2023-04-26 14:16:00,,0832.7,4.99,0.00,22.9,21.5,00.0,31.3,24.5,27.8,0000.0,0001.71,0000.92,0000.73
2023-04-26 14:17:00,,0832.8,5.00,0.00,22.9,21.5,00.0,31.3,24.5,27.9,0000.0,0001.60,0000.96,0000.76
2023-04-26 14:18:00,,0832.8,4.99,0.00,22.9,21.5,00.0,31.3,24.5,28.0,0000.0,0001.61,0000.98,0000.77
2023-04-26 14:19:00,,0832.8,5.01,0.00,22.9,21.4,00.0,31.3,24.6,28.1,0000.0,0001.62,0000.99,0000.79
2023-04-26 14:20:00,,0832.7,5.00,0.00,22.9,21.4,00.0,31.3,24.6,27.9,0000.0,0001.71,0001.04,0000.81
2023-04-26 14:21:00,,0832.8,5.00,0.00,22.9,21.4,00.0,31.3,24.5,27.8,0000.0,0001.82,0001.08,0000.82
2023-04-26 14:22:00,,0832.9,5.00,0.00,22.9,21.5,00.0,31.3,24.5,27.9,0000.0,0001.85,0001.09,0000.83
2023-04-26 14:23:00,,0832.7,5.00,0.00,22.9,21.4,00.0,31.3,24.6,27.9,0000.0,0001.84,0001.09,0000.83
2023-04-26 14:24:00,,0832.7,5.01,0.00,22.9,21.4,00.0,31.3,24.5,27.9,0000.0,0001.96,0001.14,0000.84
2023-04-26 14:25:00,,0832.8,4.99,0.00,22.9,21.4,00.0,31.2,24.5,27.8,0000.0,0002.07,0001.17,0000.85
2023-04-26 14:26:00,,0832.9,4.99,0.00,22.9,21.4,00.0,31.2,24.5,27.7,0000.0,0001.99,0001.18,0000.86
2023-04-26 14:27:00,,0832.8,4.98,0.00,22.9,21.5,00.0,31.2,24.5,27.6,0000.0,0001.99,0001.19,0000.88
2023-04-26 14:28:00,,0832.8,5.02,0.00,22.9,21.5,00.0,31.3,24.5,27.6,0000.0,0001.92,0001.18,0000.89
2023-04-26 14:29:00,,0832.8,5.01,0.00,22.9,21.4,00.0,31.3,24.5,27.6,0000.0,0001.91,0001.18,0000.90
2023-04-26 14:30:00,,0832.8,4.98,0.00,22.9,21.4,00.0,31.3,24.5,27.6,0000.0,0001.90,0001.17,0000.90
2023-04-26 14:31:00,,0832.7,4.99,0.00,22.9,21.4,00.0,31.3,24.5,27.6,0000.0,0001.86,0001.17,0000.90
2023-04-26 14:32:00,,0832.7,5.01,0.00,22.9,21.4,00.0,31.3,24.5,27.6,0000.0,0001.90,0001.19,0000.93
2023-04-26 14:33:00,,0832.7,5.01,0.00,22.9,21.5,00.0,31.3,24.5,27.5,0000.0,0001.93,0001.23,0000.97
2023-04-26 14:34:00,,0832.7,5.00,0.00,22.9,21.5,00.0,31.2,24.5,27.6,0000.0,0001.99,0001.27,0001.00
2023-04-26 14:35:00,,0832.8,4.99,0.00,22.9,21.5,00.0,31.2,24.5,27.7,0000.0,0002.07,0001.32,0001.04
2023-04-26 14:36:00,,0832.8,5.00,0.00,22.9,21.5,00.0,31.3,24.5,27.7,0000.0,0001.95,0001.31,0001.07
2023-04-26 14:37:00,,0832.8,4.99,0.00,22.9,21.5,00.0,31.3,24.5,27.6,0000.0,0002.00,0001.34,0001.10
2023-04-26 14:38:00,,0832.8,5.00,0.00,22.9,21.5,00.0,31.2,24.5,27.7,0000.0,0002.15,0001.36,0001.10
2023-04-26 14:39:00,,0832.8,5.00,0.00,22.9,21.5,00.0,31.2,24.5,27.8,0000.0,0002.14,0001.36,0001.11
2023-04-26 14:40:00,,0832.8,5.00,0.00,22.9,21.5,00.0,31.2,24.5,27.9,0000.0,0002.15,0001.37,0001.12
2023-04-26 14:41:00,,0832.8,5.01,0.00,22.9,21.5,00.0,31.2,24.5,27.8,0000.0,0002.05,0001.35,0001.13
2023-04-26 14:42:00,,0832.8,5.00,0.00,22.9,21.5,00.0,31.2,24.5,27.7,0000.0,0002.03,0001.35,0001.14
2023-04-26 14:43:00,,0832.8,5.00,0.00,22.9,21.5,00.0,31.2,24.5,27.8,0000.0,0001.97,0001.32,0001.13
2023-04-26 14:44:00,,0832.7,5.00,0.00,22.9,21.5,00.0,31.2,24.5,27.7,0000.0,0002.00,0001.33,0001.13
2023-04-26 14:45:00,,0832.8,5.01,0.00,22.9,21.5,00.0,31.2,24.5,27.6,0000.0,0001.98,0001.33,0001.14
2023-04-26 14:46:00,,0832.8,5.00,0.00,22.9,21.5,00.0,31.2,24.5,27.7,0000.0,0001.97,0001.33,0001.15
2023-04-26 14:47:00,,0832.8,5.00,0.00,22.9,21.5,00.0,31.2,24.5,27.7,0000.0,0002.04,0001.37,0001.18
2023-04-26 14:48:00,,0832.8,5.00,0.00,22.9,21.5,00.0,31.2,24.5,27.7,0000.0,0002.09,0001.42,0001.20
2023-04-26 14:49:00,,0832.8,5.00,0.00,22.9,21.5,00.0,31.2,24.5,27.7,0000.0,0002.04,0001.46,0001.26
2023-04-26 14:50:00,,0832.8,5.00,0.00,22.9,21.5,00.0,31.2,24.5,27.8,0000.0,0002.07,0001.51,0001.30
2023-04-26 14:51:00,,0832.8,4.99,0.00,22.9,21.5,00.0,31.3,24.5,27.7,0000.0,0002.24,0001.58,0001.35
2023-04-26 14:52:00,,0832.8,5.00,0.00,22.9,21.5,00.0,31.3,24.5,27.9,0000.0,0002.52,0001.69,0001.42
2023-04-26 14:53:00,,0832.8,5.00,0.00,22.9,21.5,00.0,31.3,24.5,28.1,0000.0,0002.72,0001.78,0001.47
2023-04-26 14:54:00,,0832.9,5.01,0.00,22.9,21.5,00.0,31.3,24.5,28.0,0000.0,0002.72,0001.81,0001.53
2023-04-26 14:55:00,,0832.8,5.01,0.00,22.9,21.5,00.0,31.3,24.6,27.9,0000.0,0002.74,0001.84,0001.56
2023-04-26 14:56:00,,0832.7,5.00,0.00,22.9,21.5,00.0,31.3,24.5,27.8,0000.0,0002.90,0001.91,0001.60
2023-04-26 14:57:00,,0832.8,4.99,0.00,22.9,21.5,00.0,31.3,24.5,27.9,0000.0,0003.32,0001.92,0001.62
2023-04-26 14:58:00,,0832.8,4.99,0.00,22.9,21.5,00.0,31.3,24.5,27.9,0000.0,0003.85,0001.92,0001.63
2023-04-26 14:59:00,,0832.7,5.01,0.00,22.9,21.5,00.0,31.3,24.5,27.9,0000.0,0003.85,0001.93,0001.65
